BRU784 UMMS-ULLI

Flight info

Callsign BRU784
Flight time 1h 14m
Altitude 33000
Route AGNEF2G AGNEF N743 DITBI T782 KOLET KOLET1A
Aircraft A20N/M-SDE2E3FGHIRWXY/LB1

Departure

Time 2026-05-07 10:42
Airport Minsk National Airport (UMMS)

Arrival

Time 2026-05-07 11:56
Airport Pulkovo Airport (ULLI)
Time Latitude Longitude Altitude Speed Heading
2026-05-07 09:51 53.88853 28.03328 690 ft 0 kts 357°
2026-05-07 10:28 53.88842 28.03328 689 ft 2 kts 357°
2026-05-07 10:28 53.88828 28.03329 689 ft 2 kts 358°
2026-05-07 10:29 53.88818 28.03330 689 ft 1 kts 358°
2026-05-07 10:29 53.88804 28.03337 689 ft 2 kts 321°
2026-05-07 10:29 53.88794 28.03357 689 ft 2 kts 290°
2026-05-07 10:30 53.88793 28.03389 689 ft 1 kts 262°
2026-05-07 10:30 53.88793 28.03390 689 ft 0 kts 262°
2026-05-07 10:33 53.88792 28.03388 689 ft 2 kts 262°
2026-05-07 10:33 53.88791 28.03368 689 ft 5 kts 263°
2026-05-07 10:33 53.88790 28.03271 689 ft 8 kts 275°
2026-05-07 10:33 53.88780 28.03174 689 ft 8 kts 224°
2026-05-07 10:34 53.88724 28.03193 689 ft 10 kts 134°
2026-05-07 10:34 53.88667 28.03278 689 ft 11 kts 140°
2026-05-07 10:34 53.88606 28.03365 689 ft 11 kts 140°
2026-05-07 10:34 53.88537 28.03473 689 ft 14 kts 127°
2026-05-07 10:35 53.88553 28.03617 689 ft 13 kts 49°
2026-05-07 10:35 53.88633 28.03771 689 ft 21 kts 49°
2026-05-07 10:35 53.88752 28.04002 689 ft 27 kts 49°
2026-05-07 10:35 53.88877 28.04242 689 ft 30 kts 48°
2026-05-07 10:36 53.89027 28.04525 689 ft 31 kts 49°
2026-05-07 10:36 53.89157 28.04784 689 ft 20 kts 50°
2026-05-07 10:36 53.89260 28.04810 689 ft 17 kts 319°
2026-05-07 10:36 53.89368 28.04640 689 ft 28 kts 317°
2026-05-07 10:37 53.89524 28.04410 689 ft 28 kts 321°
2026-05-07 10:37 53.89661 28.04207 689 ft 21 kts 322°
2026-05-07 10:37 53.89739 28.04207 689 ft 0 kts 64°
2026-05-07 10:37 53.89740 28.04207 689 ft 0 kts 64°
2026-05-07 10:38 53.89743 28.04223 689 ft 5 kts 72°
2026-05-07 10:39 53.89732 28.04337 689 ft 11 kts 111°
2026-05-07 10:39 53.89700 28.04470 689 ft 12 kts 112°
2026-05-07 10:39 53.89656 28.04614 689 ft 15 kts 129°
2026-05-07 10:39 53.89620 28.04676 689 ft 0 kts 139°
2026-05-07 10:40 53.89616 28.04681 689 ft 0 kts 139°
2026-05-07 10:40 53.89607 28.04695 689 ft 6 kts 139°
2026-05-07 10:40 53.89414 28.04978 689 ft 71 kts 140°
2026-05-07 10:40 53.88873 28.05786 690 ft 133 kts 139°
2026-05-07 10:41 53.88034 28.06989 707 ft 178 kts 146°
2026-05-07 10:41 53.87013 28.08403 926 ft 201 kts 145°
2026-05-07 10:41 53.85816 28.10023 944 ft 243 kts 144°
2026-05-07 10:41 53.84423 28.11832 1142 ft 251 kts 146°
2026-05-07 10:42 53.83019 28.13651 1278 ft 252 kts 147°
2026-05-07 10:42 53.81629 28.15457 1423 ft 256 kts 146°
2026-05-07 10:42 53.80196 28.17326 1584 ft 258 kts 145°
2026-05-07 10:42 53.78889 28.19427 1708 ft 262 kts 126°
2026-05-07 10:43 53.78247 28.22352 1869 ft 271 kts 98°
2026-05-07 10:43 53.78379 28.25536 2032 ft 271 kts 82°
2026-05-07 10:43 53.78761 28.28665 2183 ft 274 kts 79°
2026-05-07 10:43 53.79184 28.31840 2334 ft 276 kts 79°
2026-05-07 10:44 53.79628 28.34999 2486 ft 272 kts 79°
2026-05-07 10:44 53.80068 28.38087 2635 ft 272 kts 78°
2026-05-07 10:44 53.80497 28.41254 2784 ft 275 kts 78°
2026-05-07 10:44 53.80927 28.44449 2932 ft 276 kts 78°
2026-05-07 10:45 53.81356 28.47599 3081 ft 276 kts 78°
2026-05-07 10:45 53.81784 28.50814 3228 ft 279 kts 79°
2026-05-07 10:45 53.82365 28.53972 3376 ft 279 kts 66°
2026-05-07 10:45 53.83252 28.56884 3531 ft 278 kts 62°
2026-05-07 10:46 53.84190 28.59790 3680 ft 281 kts 62°
2026-05-07 10:46 53.85310 28.62511 3792 ft 284 kts 40°
2026-05-07 10:46 53.87098 28.63956 4096 ft 294 kts
2026-05-07 10:46 53.89092 28.64364 5001 ft 288 kts
2026-05-07 10:47 53.91079 28.64742 5595 ft 287 kts
2026-05-07 10:47 53.93064 28.65185 5918 ft 289 kts
2026-05-07 10:47 53.95044 28.65703 5974 ft 288 kts
2026-05-07 10:47 53.97025 28.66252 5984 ft 287 kts
2026-05-07 10:48 53.99028 28.66807 6246 ft 296 kts
2026-05-07 10:48 54.01065 28.67367 7108 ft 296 kts
2026-05-07 10:48 54.03080 28.67923 7974 ft 295 kts
2026-05-07 10:48 54.05085 28.68479 8771 ft 297 kts
2026-05-07 10:49 54.07144 28.69047 9525 ft 299 kts
2026-05-07 10:49 54.09207 28.69617 10243 ft 303 kts
2026-05-07 10:49 54.11331 28.70203 10649 ft 318 kts
2026-05-07 10:49 54.13559 28.70816 10959 ft 335 kts
2026-05-07 10:50 54.15919 28.71468 11472 ft 344 kts
2026-05-07 10:50 54.18272 28.72121 12184 ft 346 kts
2026-05-07 10:50 54.20635 28.72780 12873 ft 349 kts
2026-05-07 10:50 54.23060 28.73457 13522 ft 353 kts
2026-05-07 10:51 54.25514 28.74141 14158 ft 356 kts
2026-05-07 10:51 54.27940 28.74817 14770 ft 360 kts
2026-05-07 10:51 54.30416 28.75507 15375 ft 364 kts
2026-05-07 10:51 54.32943 28.76214 15972 ft 367 kts
2026-05-07 10:52 54.35472 28.76922 16551 ft 371 kts
2026-05-07 10:52 54.38024 28.77639 17117 ft 374 kts
2026-05-07 10:52 54.40609 28.78366 17670 ft 377 kts
2026-05-07 10:52 54.43179 28.79090 18202 ft 381 kts
2026-05-07 10:53 54.45795 28.79827 18729 ft 384 kts
2026-05-07 10:53 54.48439 28.80531 19243 ft 387 kts
2026-05-07 10:53 54.51151 28.81026 19768 ft 389 kts
2026-05-07 10:53 54.53851 28.81436 20282 ft 392 kts
2026-05-07 10:54 54.56570 28.81835 20786 ft 395 kts
2026-05-07 10:54 54.59310 28.82240 21283 ft 397 kts
2026-05-07 10:54 54.62066 28.82654 21772 ft 400 kts
2026-05-07 10:54 54.64858 28.83076 22261 ft 403 kts
2026-05-07 10:55 54.67634 28.83499 22734 ft 405 kts
2026-05-07 10:55 54.70451 28.83929 23204 ft 408 kts
2026-05-07 10:55 54.73277 28.84364 23663 ft 410 kts
2026-05-07 10:55 54.76147 28.84805 24113 ft 413 kts
2026-05-07 10:56 54.79026 28.85249 24554 ft 415 kts
2026-05-07 10:56 54.81895 28.85690 24979 ft 418 kts
2026-05-07 10:56 54.84782 28.86134 25394 ft 420 kts
2026-05-07 10:56 54.87713 28.86582 25803 ft 422 kts
2026-05-07 10:57 54.90648 28.87031 26195 ft 425 kts
2026-05-07 10:57 54.93590 28.87483 26571 ft 427 kts
2026-05-07 10:57 54.96528 28.87937 26924 ft 430 kts
2026-05-07 10:57 54.99524 28.88401 27275 ft 432 kts
2026-05-07 10:58 55.02541 28.88870 27601 ft 435 kts
2026-05-07 10:58 55.05552 28.89340 27913 ft 438 kts
2026-05-07 10:58 55.08572 28.89811 28224 ft 440 kts
2026-05-07 10:58 55.11635 28.90291 28530 ft 442 kts
2026-05-07 10:59 55.14720 28.90775 28811 ft 444 kts
2026-05-07 10:59 55.17787 28.91258 29085 ft 446 kts
2026-05-07 10:59 55.20903 28.91748 29381 ft 447 kts
2026-05-07 10:59 55.23987 28.92234 29742 ft 446 kts
2026-05-07 11:00 55.27040 28.92718 30101 ft 445 kts
2026-05-07 11:00 55.30147 28.93242 30446 ft 444 kts
2026-05-07 11:00 55.33196 28.93773 30757 ft 444 kts
2026-05-07 11:00 55.36278 28.94315 31053 ft 444 kts
2026-05-07 11:01 55.39362 28.94859 31318 ft 444 kts
2026-05-07 11:01 55.42452 28.95404 31545 ft 445 kts
2026-05-07 11:01 55.45509 28.95942 31752 ft 447 kts
2026-05-07 11:01 55.48601 28.96489 31965 ft 448 kts
2026-05-07 11:02 55.51720 28.97039 32182 ft 449 kts
2026-05-07 11:02 55.54801 28.97584 32390 ft 450 kts
2026-05-07 11:02 55.57916 28.98137 32578 ft 451 kts
2026-05-07 11:02 55.61048 28.98694 32765 ft 452 kts
2026-05-07 11:03 55.67356 28.99815 32841 ft 460 kts
2026-05-07 11:03 55.73782 29.00961 32850 ft 470 kts
2026-05-07 11:04 55.80358 29.02141 32849 ft 478 kts
2026-05-07 11:04 55.87000 29.03340 32850 ft 485 kts
2026-05-07 11:05 55.93723 29.04561 32849 ft 491 kts
2026-05-07 11:05 56.00528 29.05796 32849 ft 494 kts
2026-05-07 11:06 56.07364 29.06467 32849 ft 492 kts 358°
2026-05-07 11:06 56.14177 29.06712 32847 ft 487 kts 358°
2026-05-07 11:07 56.17537 29.06831 32840 ft 474 kts 358°
2026-05-07 11:07 56.20808 29.06957 32849 ft 472 kts 358°
2026-05-07 11:07 56.27365 29.07210 32870 ft 471 kts 358°
2026-05-07 11:08 56.33892 29.07385 32900 ft 471 kts 357°
2026-05-07 11:08 56.40416 29.07523 32926 ft 470 kts 357°
2026-05-07 11:09 56.46968 29.07674 32941 ft 470 kts 358°
2026-05-07 11:09 56.53507 29.07834 32950 ft 470 kts 357°
2026-05-07 11:10 56.60058 29.07997 32955 ft 470 kts 358°
2026-05-07 11:10 56.66569 29.08162 32956 ft 470 kts 358°
2026-05-07 11:11 56.73066 29.08329 32956 ft 470 kts 358°
2026-05-07 11:11 56.79632 29.08501 32956 ft 470 kts 358°
2026-05-07 11:12 56.86168 29.08743 32956 ft 470 kts 358°
2026-05-07 11:12 56.92682 29.09004 32956 ft 470 kts 358°
2026-05-07 11:13 56.99198 29.09266 32957 ft 470 kts 358°
2026-05-07 11:13 57.05694 29.09528 32958 ft 465 kts 358°
2026-05-07 11:14 57.12125 29.09786 32958 ft 461 kts 358°
2026-05-07 11:14 57.18530 29.10045 32957 ft 459 kts 358°
2026-05-07 11:15 57.24902 29.10305 32956 ft 459 kts 358°
2026-05-07 11:15 57.31266 29.10563 32956 ft 459 kts 358°
2026-05-07 11:16 57.37670 29.10826 32956 ft 459 kts 358°
2026-05-07 11:16 57.44046 29.11089 32956 ft 459 kts 358°
2026-05-07 11:17 57.50424 29.11356 32956 ft 459 kts 358°
2026-05-07 11:17 57.56780 29.11624 32956 ft 459 kts 358°
2026-05-07 11:18 57.63165 29.11962 32956 ft 460 kts
2026-05-07 11:18 57.69515 29.13150 32956 ft 462 kts
2026-05-07 11:19 57.75891 29.14425 32852 ft 460 kts
2026-05-07 11:19 57.79082 29.14699 32595 ft 456 kts 359°
2026-05-07 11:19 57.82236 29.14894 32336 ft 446 kts 358°
2026-05-07 11:20 57.85281 29.15067 32082 ft 436 kts 358°
2026-05-07 11:20 57.88324 29.15240 31830 ft 432 kts 358°
2026-05-07 11:20 57.91306 29.15414 31559 ft 432 kts 358°
2026-05-07 11:20 57.94313 29.15594 31192 ft 433 kts 358°
2026-05-07 11:21 57.97323 29.15777 30705 ft 433 kts 358°
2026-05-07 11:21 58.00322 29.15956 30129 ft 434 kts 358°
2026-05-07 11:21 58.03396 29.15926 29488 ft 433 kts 354°
2026-05-07 11:21 58.06441 29.15629 28893 ft 432 kts 353°
2026-05-07 11:22 58.09440 29.15259 28463 ft 428 kts 353°
2026-05-07 11:22 58.12471 29.14872 28010 ft 424 kts 353°
2026-05-07 11:22 58.15522 29.14487 27553 ft 420 kts 353°
2026-05-07 11:22 58.18540 29.14264 27097 ft 418 kts 356°
2026-05-07 11:23 58.21414 29.14320 26663 ft 416 kts 358°
2026-05-07 11:23 58.24305 29.14468 26221 ft 413 kts 358°
2026-05-07 11:23 58.27147 29.14631 25789 ft 410 kts 358°
2026-05-07 11:23 58.30004 29.14796 25355 ft 407 kts 358°
2026-05-07 11:24 58.32817 29.14955 24928 ft 404 kts 358°
2026-05-07 11:24 58.35613 29.15111 24502 ft 401 kts 358°
2026-05-07 11:24 58.38390 29.15264 24076 ft 398 kts 358°
2026-05-07 11:24 58.41136 29.15415 23655 ft 396 kts 358°
2026-05-07 11:25 58.43892 29.15566 23229 ft 393 kts 358°
2026-05-07 11:25 58.46616 29.15715 22807 ft 390 kts 358°
2026-05-07 11:25 58.49309 29.15863 22388 ft 388 kts 358°
2026-05-07 11:25 58.52001 29.16010 21967 ft 386 kts 358°
2026-05-07 11:26 58.54653 29.16156 21551 ft 383 kts 358°
2026-05-07 11:26 58.57341 29.16303 21125 ft 381 kts 358°
2026-05-07 11:26 58.59999 29.16449 20707 ft 379 kts 358°
2026-05-07 11:26 58.62622 29.16594 20290 ft 377 kts 358°
2026-05-07 11:27 58.65289 29.16741 19868 ft 375 kts 358°
2026-05-07 11:27 58.67973 29.16889 19440 ft 373 kts 358°
2026-05-07 11:27 58.70641 29.17037 19016 ft 370 kts 358°
2026-05-07 11:27 58.73323 29.17186 18590 ft 368 kts 358°
2026-05-07 11:28 58.75924 29.17331 18177 ft 366 kts 358°
2026-05-07 11:28 58.78526 29.17477 17765 ft 364 kts 358°
2026-05-07 11:28 58.81118 29.17622 17356 ft 362 kts 358°
2026-05-07 11:28 58.83678 29.17766 16953 ft 360 kts 358°
2026-05-07 11:29 58.86209 29.17909 16553 ft 357 kts 358°
2026-05-07 11:29 58.88731 29.18052 16156 ft 355 kts 358°
2026-05-07 11:29 58.91190 29.18193 15770 ft 353 kts 358°
2026-05-07 11:29 58.93618 29.18331 15386 ft 351 kts 358°
2026-05-07 11:30 58.96077 29.18469 14995 ft 349 kts 358°
2026-05-07 11:30 58.98475 29.18685 14610 ft 348 kts
2026-05-07 11:30 59.00885 29.19345 14219 ft 349 kts
2026-05-07 11:30 59.03230 29.20475 13833 ft 349 kts 12°
2026-05-07 11:31 59.05559 29.21809 13418 ft 349 kts 13°
2026-05-07 11:31 59.07892 29.23184 13008 ft 348 kts 13°
2026-05-07 11:31 59.10198 29.24542 12609 ft 347 kts 13°
2026-05-07 11:31 59.12523 29.25897 12212 ft 345 kts 13°
2026-05-07 11:32 59.17114 29.28557 11426 ft 342 kts 13°
2026-05-07 11:32 59.19362 29.29859 11035 ft 341 kts 13°
2026-05-07 11:32 59.21661 29.31196 10639 ft 340 kts 14°
2026-05-07 11:33 59.23902 29.32496 10249 ft 339 kts 14°
2026-05-07 11:33 59.26135 29.33801 10118 ft 327 kts 14°
2026-05-07 11:33 59.28269 29.35046 10067 ft 313 kts 14°
2026-05-07 11:33 59.30331 29.36248 9997 ft 301 kts 14°
2026-05-07 11:34 59.32333 29.37412 9652 ft 300 kts 14°
2026-05-07 11:34 59.34341 29.38583 9330 ft 299 kts 15°
2026-05-07 11:34 59.36315 29.39734 9020 ft 297 kts 15°
2026-05-07 11:34 59.38284 29.40888 8715 ft 295 kts 15°
2026-05-07 11:35 59.40259 29.42050 8413 ft 293 kts 16°
2026-05-07 11:35 59.42194 29.43186 8118 ft 290 kts 16°
2026-05-07 11:35 59.44111 29.44316 7827 ft 288 kts 16°
2026-05-07 11:35 59.46037 29.45457 7535 ft 286 kts 15°
2026-05-07 11:36 59.47934 29.46574 7247 ft 284 kts 17°
2026-05-07 11:36 59.49812 29.47677 6964 ft 282 kts 17°
2026-05-07 11:36 59.51675 29.48782 6680 ft 280 kts 17°
2026-05-07 11:36 59.53550 29.49897 6395 ft 278 kts 17°
2026-05-07 11:37 59.55384 29.50986 6118 ft 275 kts 18°
2026-05-07 11:37 59.57219 29.52081 5838 ft 273 kts 18°
2026-05-07 11:37 59.59023 29.53167 5561 ft 272 kts 17°
2026-05-07 11:37 59.60834 29.54239 5287 ft 270 kts 18°
2026-05-07 11:38 59.62627 29.55303 5073 ft 267 kts 18°
2026-05-07 11:38 59.64373 29.56341 5044 ft 253 kts 18°
2026-05-07 11:38 59.66053 29.57359 5006 ft 254 kts 17°
2026-05-07 11:38 59.67794 29.57876 4976 ft 256 kts 350°
2026-05-07 11:39 59.69380 29.56409 4974 ft 253 kts 313°
2026-05-07 11:39 59.70495 29.53734 5015 ft 253 kts 302°
2026-05-07 11:39 59.71503 29.50831 5012 ft 253 kts 302°
2026-05-07 11:39 59.72552 29.48059 4996 ft 254 kts 313°
2026-05-07 11:40 59.74005 29.46070 4997 ft 256 kts 335°
2026-05-07 11:40 59.75676 29.44760 4996 ft 255 kts 339°
2026-05-07 11:40 59.77333 29.43604 4992 ft 255 kts 339°
2026-05-07 11:40 59.79022 29.42419 4991 ft 255 kts 339°
2026-05-07 11:41 59.80704 29.41208 4991 ft 255 kts 338°
2026-05-07 11:41 59.82361 29.39988 4990 ft 255 kts 339°
2026-05-07 11:41 59.84097 29.39172 4988 ft 256 kts 356°
2026-05-07 11:41 59.85868 29.39246 4991 ft 254 kts
2026-05-07 11:42 59.87622 29.39600 4990 ft 255 kts
2026-05-07 11:42 59.89384 29.39964 4986 ft 250 kts
2026-05-07 11:42 59.91112 29.40307 4989 ft 250 kts
2026-05-07 11:42 59.92830 29.40930 4982 ft 247 kts 21°
2026-05-07 11:43 59.94385 29.42260 4995 ft 245 kts 29°
2026-05-07 11:43 59.95905 29.43849 4994 ft 243 kts 31°
2026-05-07 11:43 59.97403 29.45450 4991 ft 242 kts 31°
2026-05-07 11:43 59.98886 29.47022 4986 ft 245 kts 29°
2026-05-07 11:44 60.00372 29.48738 4983 ft 245 kts 39°
2026-05-07 11:44 60.01604 29.51007 4985 ft 240 kts 51°
2026-05-07 11:44 60.02696 29.53539 4990 ft 238 kts 53°
2026-05-07 11:44 60.03741 29.56108 4989 ft 238 kts 59°
2026-05-07 11:45 60.04278 29.59135 4956 ft 227 kts 94°
2026-05-07 11:45 60.03876 29.62119 4962 ft 221 kts 126°
2026-05-07 11:45 60.02752 29.64165 4977 ft 218 kts 156°
2026-05-07 11:45 60.01311 29.65060 5001 ft 218 kts 166°
2026-05-07 11:46 59.99831 29.65774 4993 ft 218 kts 166°
2026-05-07 11:46 59.98393 29.66486 4971 ft 206 kts 165°
2026-05-07 11:46 59.97058 29.67156 4964 ft 191 kts 165°
2026-05-07 11:46 59.95814 29.67801 4976 ft 173 kts 166°
2026-05-07 11:47 59.94722 29.68350 5051 ft 157 kts 165°
2026-05-07 11:47 59.93677 29.68881 5005 ft 154 kts 167°
2026-05-07 11:47 59.92607 29.69424 5013 ft 162 kts 166°
2026-05-07 11:47 59.91491 29.69975 4992 ft 165 kts 166°
2026-05-07 11:48 59.90376 29.70546 4802 ft 167 kts 164°
2026-05-07 11:48 59.89420 29.71770 4574 ft 159 kts 134°
2026-05-07 11:48 59.88790 29.73468 4432 ft 150 kts 124°
2026-05-07 11:48 59.88318 29.75345 4326 ft 148 kts 114°
2026-05-07 11:49 59.87982 29.77259 4226 ft 147 kts 108°
2026-05-07 11:49 59.87730 29.79283 4101 ft 149 kts 107°
2026-05-07 11:49 59.87486 29.81276 3956 ft 148 kts 107°
2026-05-07 11:49 59.87225 29.83268 3845 ft 147 kts 107°
2026-05-07 11:50 59.86953 29.85209 3724 ft 146 kts 108°
2026-05-07 11:50 59.86669 29.87151 3556 ft 143 kts 109°
2026-05-07 11:50 59.86386 29.89025 3394 ft 139 kts 110°
2026-05-07 11:50 59.86102 29.90872 3278 ft 140 kts 109°
2026-05-07 11:51 59.85811 29.92740 3154 ft 139 kts 107°
2026-05-07 11:51 59.85528 29.94564 3026 ft 138 kts 107°
2026-05-07 11:51 59.85242 29.96410 2900 ft 138 kts 107°
2026-05-07 11:51 59.84958 29.98237 2758 ft 139 kts 105°
2026-05-07 11:52 59.84677 30.00071 2571 ft 138 kts 108°
2026-05-07 11:52 59.84396 30.01907 2384 ft 139 kts 109°
2026-05-07 11:52 59.84112 30.03751 2205 ft 138 kts 106°
2026-05-07 11:52 59.83834 30.05577 2017 ft 138 kts 105°
2026-05-07 11:53 59.83554 30.07424 1830 ft 138 kts 104°
2026-05-07 11:53 59.83276 30.09260 1651 ft 139 kts 104°
2026-05-07 11:53 59.83001 30.11080 1461 ft 136 kts 105°
2026-05-07 11:53 59.82729 30.12883 1284 ft 135 kts 108°
2026-05-07 11:54 59.82458 30.14678 1107 ft 135 kts 106°
2026-05-07 11:54 59.82188 30.16471 924 ft 135 kts 104°
2026-05-07 11:54 59.81918 30.18266 746 ft 136 kts 106°
2026-05-07 11:54 59.81645 30.20080 562 ft 135 kts 106°
2026-05-07 11:55 59.81376 30.21878 387 ft 135 kts 106°
2026-05-07 11:55 59.81108 30.23672 202 ft 135 kts 105°
2026-05-07 11:55 59.80835 30.25454 88 ft 135 kts 105°
2026-05-07 11:55 59.80607 30.27035 87 ft 95 kts 106°
2026-05-07 11:56 59.80463 30.27986 87 ft 57 kts 107°
2026-05-07 11:56 59.80360 30.28656 87 ft 37 kts 109°
2026-05-07 11:56 59.80263 30.28802 86 ft 14 kts 221°
2026-05-07 11:56 59.80199 30.28657 86 ft 7 kts 230°
2026-05-07 11:57 59.80197 30.28651 86 ft 0 kts 230°
2026-05-07 11:57 59.80191 30.28637 86 ft 6 kts 230°
2026-05-07 11:58 59.80158 30.28475 86 ft 14 kts 279°
2026-05-07 11:58 59.80186 30.28280 86 ft 14 kts 287°
2026-05-07 11:58 59.80217 30.28072 86 ft 19 kts 286°
2026-05-07 11:58 59.80263 30.27770 86 ft 22 kts 286°
2026-05-07 11:59 59.80307 30.27471 86 ft 22 kts 286°
2026-05-07 11:59 59.80356 30.27145 87 ft 27 kts 286°
2026-05-07 11:59 59.80401 30.26842 86 ft 19 kts 285°
2026-05-07 11:59 59.80438 30.26594 86 ft 16 kts 285°
2026-05-07 12:00 59.80374 30.26446 86 ft 15 kts 188°
2026-05-07 12:00 59.80267 30.26413 86 ft 15 kts 195°
2026-05-07 12:00 59.80165 30.26354 86 ft 13 kts 195°
2026-05-07 12:00 59.80117 30.26443 86 ft 10 kts 107°
2026-05-07 12:01 59.80112 30.26476 86 ft 0 kts 104°